Location: Olsztyn
(53.7711°N, 20.4783°E)
Time: 04:40:10
(UTC+01:00)

ISS - Visible Passes

Search period start: 24 November 2017 00:00
Search period end: 04 December 2017 00:00
Orbit: 402 x 407 km, 51.6° (Epoch: 24 November)

Date Brightness Start Highest point End Pass type
(mag) Time Alt. Az. Time Alt. Az. Time Alt. Az.
29 Nov -1.4 17:26:32 10° S 17:27:45 13° SSE 17:27:45 13° SSE visible
30 Nov -1.6 18:08:54 10° SW 18:10:15 20° SSW 18:10:15 20° SSW visible
01 Dec -2.2 17:16:59 10° SSW 17:19:36 22° SSE 17:20:01 21° SE visible
01 Dec -0.5 18:52:27 10° WSW 18:52:40 11° WSW 18:52:40 11° WSW visible
02 Dec -1.6 16:25:24 10° S 16:27:25 15° SE 16:29:26 10° ESE visible
02 Dec -2.4 18:00:11 10° WSW 18:02:23 33° SSW 18:02:23 33° SSW visible
03 Dec -2.7 17:08:01 10° SW 17:11:01 33° SSE 17:12:04 26° ESE visible
03 Dec -0.8 18:43:58 10° WSW 18:44:42 16° WSW 18:44:42 16° WSW visible
